Regional Weather Roundup
Issued by NWS Green Bay, WI

Home | Current Version | Previous Version | Graphics & Text | Print | Product List | Glossary Off
Versions: 1 2 3 4 5 6 7 8 9 10 11 12 13 14 15 16 17 18 19 20 21 22 23 24 25 26 27 28 29 30 31 32 33 34 35 36 37 38 39 40 41 42 43 44 45 46 47 48 49 50

602
ASUS43 KGRB 222011
RWRGRB

NORTH-CENTRAL AND NORTHEAST WISCONSIN REGIONAL WEATHER ROUNDUP
NATIONAL WEATHER SERVICE GREEN BAY WI
300 PM CDT TUE AUG 22 2017

WIZ005-009-010>012-018-019-222100-
NORTH CENTRAL WISCONSIN

CITY           SKY/WX    TMP DP  RH WIND       PRES   REMARKS
IRONWOOD       PTSUNNY   67  52  58 W20G26    29.90F
MANITOWISH WTR CLOUDY    63  48  58 NW14G25   29.91S
ARBOR VITAE    MOSUNNY   67  48  50 NW10G24   29.91S
EAGLE RIVER    CLOUDY    65  47  52 NW14G21   29.90S
LAND O LAKES   LGT RAIN  64  48  57 NW6G21    29.91S
RHINELANDER    MOSUNNY   68  49  50 W16G22    29.92S
PHILLIPS       CLOUDY    68  50  51 W16G23    29.93S
ANTIGO         PTSUNNY   68  49  51 NW20G26   29.92S
TOMAHAWK         N/A     67  48  51 W13G20    29.93S
MERRILL        MOSUNNY   70  48  46 NW16G25   29.92F
$$

WIZ013-073-222100-
NORTHEAST WISCONSIN

CITY           SKY/WX    TMP DP  RH WIND       PRES   REMARKS
IRON MOUNTAIN  CLOUDY    68  45  43 NW16G22   29.84S
MARINETTE      PTSUNNY   73  48  41 NW8G22    29.85R
OCONTO         PTSUNNY   75  49  40 NW16G23   29.85S
$$

WIZ017-030-035>037-045-222100-
CENTRAL WISCONSIN

CITY           SKY/WX    TMP DP  RH WIND       PRES   REMARKS
MEDFORD        PTSUNNY   68  48  49 NW15G22   29.95S
WAUSAU         PTSUNNY   72  47  40 NW16G24   29.91S
MOSINEE        PTSUNNY   72  48  43 W18G30    29.95S
MARSHFIELD     MOSUNNY   71  48  43 NW18G28   29.96R
WISC RAPIDS    MOSUNNY   73  48  41 NW22G29   29.96S
STEVENS POINT  PTSUNNY   71  47  42 NW14G23   29.94S
WAUPACA        MOSUNNY   76  47  34 W16       29.92S
SHAWANO        SUNNY     74  47  38 NW10G22   29.88S
CLINTONVILLE   MOSUNNY   72  41  33 NW18G25   29.89S
WAUTOMA        MOSUNNY   73  49  42 NW15G25   29.94R
$$

WIZ038-039-048-051-222100-
FOX VALLEY

CITY           SKY/WX    TMP DP  RH WIND       PRES   REMARKS
NWS GREEN BAY  MOSUNNY   72  51  47 NW20G29   29.87S
APPLETON       PTSUNNY   73  45  35 NW15G24   29.89S
OSHKOSH        MOSUNNY   72  50  45 NW14G24   29.90R
FOND DU LAC    MOSUNNY   74  49  41 W17G25    29.91R
$$

WIZ022-050-052-222100-
EAST CENTRAL WISCONSIN

CITY           SKY/WX    TMP DP  RH WIND       PRES   REMARKS
EPHRAIM        FAIR      71  52  51 NW14      29.83S
WASHINGTON ISL MOCLDY    69  49  49 NW12G20   29.82R
STURGEON BAY   MOSUNNY   72  53  51 NW13G22   29.85S
MANITOWOC      MOSUNNY   74  49  41 NW17G26   29.87S
SHEBOYGAN      MOSUNNY   74  54  49 W15G23    29.89R
$$

LMZ563-521-522-541>543-222100-
LAKESHORE

STATION/POSITION TIME  TEMP    WIND        PRES    VSBY  WAVE
                       AIR SEA DIR/SP/G                  HT/PER
                 (UTC) (F)     (DEG/KT/KT) (MB)    (MI)  (FT/S)
SHEBOYGAN LKSHOR 2000   72     290/ 16/ 21 1011.3R
KEWAUNEE LKSHORE 1948   71     310/  7/ 14 1010.2R
NORTHPORT PIER   1940   70     300/ 10/ 17 1009.8R
N MID LAKE BUOY  1850   67 67  290/ 17/ 23 1009.0          3/ 4
S GREEN BAY BUOY 2000   71 71  280/ 17/ 19 1010.8
SISTER BAY LKSHO 2003   74     320/ 20/ 23   N/A
MENOMINEE LKSHOR 1948   71     300/ 14/ 22 1010.1R
$$




USA.gov is the U.S. government's official web portal to all federal, state and local government web resources and services.